Location: ????????
(55.0559°N, 39.1270°E)
Time: 08:25:36
(UTC+00:00)

Cosmos 2322 - Pass Details

Date: 15 November 2025
Orbit: 841 x 852 km, 71.0° (Epoch: 14 December)

Event Time Altitude Azimuth Distance (km) Brightness Sun altitude
Exits shadow 01:40:17 58° 348° (NNW) 988 3.9 -27.6°
Drops below altitude 10° 01:45:09 10° 31° (NNE) 2,474 6.5 -26.9°
Sets 01:47:38 0° 34° (NE) 3,411 7.4 -26.6°
